Content
SEND FEEDBACK

Daily
Averages
Monthly
Summary
Malaysia

ALOR SETAR, MALAYSIA


Home > Asia > Malaysia
Elevation: 13 feet     Latitude: 06 11N     Longitude: 100 24E

WEATHER
 
SELECT A DAY
Number of Records: 95,375;   Date Range: 6/24/00 - 12/27/14
 
SHARE

PRINT THIS DATA

[ ← Previous Day ]
WEATHER ALMANAC - FEBRUARY 12, 2013
[ Next Day → ]
[ °C ]   °F
Weather ElementAverageHighLow
Temperature80.5 °F84.2 °F (11:00 am)77 °F (7:00 am)
Dewpoint75.1 °F77 °F (10:00 am)73.4 °F (1:00 am)
Humidity83.7 %94 % (7:00 am)79 % (1:00 am)
Barometer29.81 in29.86 in (1:00 am)29.74 in (5:00 pm)
Wind Speed5.1 mph11.5 mph (5:00 pm)
Weather ElementAverage
Visibility6.2 mi
Wind DirectionENE (80.5 °)

Weather ElementTotal
Precipitation---
Cooling Degree Days15.6 (Base 65)
Growing Degree Days30.6 (Base 50)
Averaged from 22 records on February 12, 2013
WEATHER CONDITIONS BREAKOUT
WIND DIRECTION BREAKOUT
WEATHER BY HOUR - FEBRUARY 12, 2013
[ °C ]   °F
Local TimeTemperatureDewpointHumidityBarometerVisibilityWind DirectionWind SpeedGust SpeedPrecipitationEventsConditions
1:00 AM80.6 °F73.4 °F79 %29.86 in6.2 miNNE (20°)4.6 mphMostly Cloudy
2:00 AM78.8 °F73.4 °F83 %29.83 in6.2 miNNW (340°)1.2 mphMostly Cloudy
3:00 AM78.8 °F73.4 °F83 %29.80 in6.2 miNNW (330°)2.3 mphMostly Cloudy
4:00 AM78.8 °F75.2 °F89 %29.80 in6.2 miCalmMostly Cloudy
5:00 AM78.8 °F75.2 °F89 %29.80 in6.2 miNNE (20°)1.2 mphMostly Cloudy
7:00 AM77.0 °F75.2 °F94 %29.80 in6.2 miNorth (10°)2.3 mphMostly Cloudy
8:00 AM77.0 °F75.2 °F94 %29.80 in6.2 miNNE (20°)2.3 mphMostly Cloudy
9:00 AM78.8 °F75.2 °F89 %29.83 in6.2 miNNW (340°)2.3 mphMostly Cloudy
10:00 AM82.4 °F77.0 °F84 %29.83 in6.2 miNNE (30°)3.5 mphMostly Cloudy
11:00 AM84.2 °F77.0 °F79 %29.86 in6.2 miENE (60°)6.9 mphMostly Cloudy
12:00 PM84.2 °F77.0 °F79 %29.86 in6.2 miNE (50°)8.1 mphMostly Cloudy
1:00 PM82.4 °F77.0 °F84 %29.86 in6.2 miENE (70°)10.4 mphRainLight Rain
2:00 PM84.2 °F77.0 °F79 %29.80 in6.2 miNE (50°)8.1 mphMostly Cloudy
3:00 PM84.2 °F77.0 °F79 %29.80 in6.2 miENE (60°)9.2 mphMostly Cloudy
4:00 PM82.4 °F75.2 °F79 %29.77 in6.2 miNE (50°)9.2 mphMostly Cloudy
5:00 PM82.4 °F75.2 °F79 %29.74 in6.2 miENE (60°)11.5 mphMostly Cloudy
6:00 PM80.6 °F75.2 °F84 %29.74 in6.2 miNE (40°)5.8 mphMostly Cloudy
7:00 PM80.6 °F75.2 °F84 %29.77 in6.2 miNE (50°)6.9 mphMostly Cloudy
8:00 PM78.8 °F73.4 °F83 %29.77 in6.2 miNE (40°)5.8 mphMostly Cloudy
9:00 PM78.8 °F73.4 °F83 %29.77 in6.2 miNE (40°)4.6 mphMostly Cloudy
10:00 PM78.8 °F73.4 °F83 %29.80 in6.2 miNE (50°)4.6 mphRainLight Rain
11:00 PM78.8 °F73.4 °F83 %29.83 in6.2 miNE (40°)2.3 mphRainLight Rain
Hourly data recorded from WMKA, located miles away from Alor Setar, Malaysia







STORIES FROM OUR PARTNERS